Probability
0 0 0 0 0 0 0 0 0 0 0 0 0 0 0 0 0 0 1 3 6 18 43 72 92 99 100 100 100 100 100 100 100 99 96 90 82 73 64 55 46 35 24 20
0 0 0 0 0 0 0 0 0 0 0 0 0 0 0 0 0 0 2 3 7 20 45 74 93 99 100 100 100 100 100 100 99 97 93 85 75 65 52 41 32 23 15 11
0 0 0 0 0 0 0 0 0 0 0 0 0 0 0 0 0 0 1 3 7 19 45 75 92 97 99 100 100 100 100 99 97 92 83 71 59 46 33 23 16 11 7 4
0 0 0 0 0 0 0 0 0 0 0 0 0 0 0 0 0 0 0 1 4 16 41 71 89 97 99 100 100 98 96 93 89 81 71 58 45 33 22 14 9 7 4 2
0 0 0 0 0 0 0 0 0 0 0 0 0 0 0 0 0 0 0 1 3 15 40 70 90 97 99 98 96 91 84 78 71 65 60 51 39 28 18 11 8 5 2 1
0 0 0 0 0 0 0 0 0 0 0 0 0 0 0 0 0 0 0 2 7 22 49 78 94 97 94 89 82 73 63 56 50 46 43 37 28 19 13 9 6 4 1 0
0 0 0 0 0 0 0 0 0 0 0 0 0 0 0 0 0 0 2 7 18 39 66 88 97 93 83 71 59 48 39 33 29 25 22 19 13 9 7 5 4 3 1 0
0 0 0 0 0 0 0 0 0 0 0 0 0 0 0 0 0 0 3 12 30 53 76 92 92 80 62 47 35 27 20 16 14 10 9 8 6 5 4 3 2 1 0 0
0 0 0 0 0 0 0 0 0 0 0 0 0 0 0 0 0 0 2 12 32 56 78 87 77 57 39 27 19 14 10 7 6 5 4 4 4 3 3 2 1 0 0 0
0 0 0 0 0 0 0 0 0 0 0 0 0 0 0 0 0 0 1 10 31 56 77 79 61 40 25 15 10 7 5 3 3 2 2 2 2 1 1 1 0 0 0 0
0 0 0 0 0 0 0 0 0 0 0 0 0 0 0 0 0 0 3 13 35 61 77 71 52 31 18 9 5 3 3 2 1 1 1 1 1 0 0 0 0 0 0 0
0 0 0 0 0 0 0 0 0 0 0 0 0 0 1 1 1 2 7 21 44 66 74 62 42 24 11 5 2 1 1 1 0 0 0 0 0 0 0 0 0 0 0 0
0 0 0 0 0 0 0 0 0 0 0 0 0 0 1 2 2 3 10 24 42 58 62 51 33 16 6 2 1 0 0 0 0 0 0 0 0 0 0 0 0 0 0 0
0 0 0 0 0 0 0 0 0 0 0 0 0 0 1 2 3 6 13 22 35 48 52 43 27 13 5 1 0 0 0 0 0 0 0 0 0 0 0 0 0 0 0 0
0 0 0 0 0 0 0 0 0 0 0 0 0 0 2 6 10 16 23 30 40 51 53 40 25 13 5 1 0 0 0 0 0 0 0 0 0 0 0 0 0 0 0 0
0 0 0 0 0 0 0 0 0 0 0 0 0 2 5 11 19 29 39 47 54 59 53 37 21 10 4 1 0 0 0 0 0 0 0 0 0 0 0 0 0 0 0 0
0 0 0 0 0 0 0 0 0 0 0 0 1 2 5 10 18 30 41 48 51 50 40 25 13 5 2 0 0 0 0 0 0 0 0 0 0 0 0 0 0 0 0 0
0 0 0 0 0 0 0 0 0 0 0 1 2 2 2 4 9 15 23 26 27 25 18 10 4 1 0 0 0 0 0 0 0 0 0 0 0 0 0 0 0 0 0 0
0 0 0 0 0 0 0 0 0 0 1 2 3 2 1 1 2 3 5 6 6 5 3 2 0 0 0 0 0 0 0 0 0 0 0 0 0 0 0 0 0 0 0 0
0 0 0 0 0 0 0 0 0 0 0 1 1 1 0 0 0 0 0 0 0 0 0 0 0 0 0 0 0 0 0 0 0 0 0 0 0 0 0 0 0 0 0 0
0 0 0 0 0 0 0 0 0 0 0 0 0 0 0 0 0 0 0 0 0 0 0 0 0 0 0 0 0 0 0 0 0 0 0 0 0 0 0 0 0 0 0 0
0 0 0 0 0 0 0 0 0 0 0 0 0 0 0 0 0 0 0 0 0 0 0 0 0 0 0 0 0 0 0 0 0 0 0 0 0 0 0 0 0 0 0 0
0 0 0 0 0 0 0 0 0 0 0 0 0 0 0 0 0 0 0 0 0 0 0 0 0 0 0 0 0 0 0 0 0 0 0 0 0 0 0 0 0 0 0 0
0 0 0 0 0 0 0 0 0 0 0 0 0 0 0 0 0 0 0 0 0 0 0 0 0 0 0 0 0 0 0 0 0 0 0 0 0 0 0 0 0 0 0 0
0 0 0 0 0 0 0 0 0 0 0 0 0 0 0 0 0 0 0 0 0 0 0 0 0 0 0 0 0 0 0 0 0 0 0 0 0 0 0 0 0 0 0 0
0 0 0 0 0 0 0 0 0 0 0 0 0 0 0 0 0 0 0 0 0 0 0 0 0 0 0 0 0 0 0 0 0 0 0 0 0 0 0 0 0 0 0 0
Wind_Speed
16 14 16 18 20 20 20 21 18 17 19 21 21 18 16 13 12 13 13 12 12 12 9 11 14 17 16 14 13 12 11 11 9 7 7 6 6 5 5 5 6 6 6 5
16 19 19 19 18 20 21 21 20 16 14 13 13 14 13 13 14 12 13 13 12 9 7 9 14 14 14 13 13 11 10 11 9 6 4 4 6 5 5 5 5 6 6 4
21 17 21 20 19 17 18 17 17 16 16 16 15 16 15 15 19 18 15 15 15 11 7 10 15 16 15 15 13 11 10 10 7 7 6 6 5 5 4 5 4 4 5 5
20 21 14 13 16 16 14 14 15 16 15 15 17 16 16 17 20 22 20 19 18 15 11 11 14 15 14 12 11 10 10 9 7 7 7 8 6 6 5 5 5 4 4 4
18 18 17 15 13 13 13 13 14 15 15 16 17 17 16 16 19 18 18 20 18 15 13 13 15 15 13 12 11 10 10 9 8 6 6 6 5 5 5 6 6 5 4 3
19 17 15 16 14 12 11 12 13 12 12 17 17 19 19 17 19 17 16 13 11 11 9 14 16 15 14 12 11 10 10 8 7 6 5 4 6 7 7 6 5 3 4 4
21 20 16 12 13 14 13 11 9 11 13 16 18 19 18 18 18 14 8 2 2 4 10 17 17 15 13 13 12 11 10 8 6 6 5 6 7 6 6 4 4 1 2 4
19 19 20 16 14 12 14 15 12 12 12 12 11 11 9 6 3 2 3 3 4 9 12 16 16 14 12 12 12 11 11 9 7 7 6 6 5 4 4 3 2 2 2 6
15 15 19 22 19 17 16 15 16 15 16 16 14 16 14 8 6 7 8 6 5 9 13 16 15 13 12 12 11 11 11 9 8 7 7 5 4 5 6 3 1 3 3 3
15 14 14 13 18 20 18 15 10 12 13 15 15 15 11 9 8 4 2 2 4 9 14 16 14 13 12 12 11 10 9 9 8 7 5 5 5 5 3 2 4 5 3 3
8 10 15 11 12 14 15 16 14 12 12 13 13 9 4 7 8 7 5 4 3 11 15 16 13 13 13 13 12 10 9 8 7 5 5 5 4 3 2 3 4 3 2 1
7 8 13 15 12 12 14 16 15 12 13 13 13 11 7 8 11 12 11 11 7 11 15 15 15 15 14 13 11 10 8 7 6 5 5 4 3 3 2 3 3 2 1 1
9 6 10 13 13 14 14 15 14 12 11 11 13 9 5 11 13 14 13 12 8 9 15 15 15 14 14 12 11 9 7 6 5 5 5 3 3 3 3 3 3 2 2 2
6 7 10 13 8 7 9 11 12 13 12 11 12 9 8 11 9 9 8 7 4 7 12 15 14 14 13 12 10 9 7 5 5 5 5 4 4 3 2 2 2 2 3 3
5 9 13 15 15 12 11 10 9 10 11 11 12 11 10 12 10 10 10 8 4 6 10 14 14 13 13 12 11 10 8 7 7 6 5 3 2 1 2 2 2 3 4 5
5 8 12 15 15 15 15 15 14 14 14 15 14 9 13 13 13 13 13 12 8 5 8 12 13 14 13 12 12 11 9 8 7 6 4 2 2 2 2 2 3 4 5 5
4 6 10 13 14 15 18 15 15 14 10 11 10 9 12 13 15 16 15 14 12 9 9 11 12 12 12 12 12 11 9 7 5 3 2 1 0 1 2 4 6 6 6 6
6 8 7 10 12 16 8 5 5 5 7 10 9 11 12 12 13 16 16 14 13 11 11 12 12 13 12 11 10 9 7 5 3 2 2 2 2 3 4 5 5 5 5 5
6 7 8 9 12 14 4 7 8 5 7 15 13 12 12 10 5 14 15 15 13 12 12 12 12 13 12 10 8 7 4 2 2 4 4 4 4 5 6 7 6 5 4 4
6 7 9 10 11 10 5 8 7 5 3 13 12 12 12 11 7 5 10 13 14 13 13 13 12 12 10 7 5 4 3 3 4 5 5 5 5 5 7 6 6 5 4 4
8 8 10 11 12 1 8 9 8 5 5 11 11 10 9 6 6 9 12 13 14 14 13 12 12 9 7 4 4 4 5 5 6 6 6 5 4 4 6 5 4 4 5 4
4 4 6 7 8 0 11 8 8 8 9 10 10 8 5 9 12 13 14 14 14 14 13 11 10 8 5 4 5 6 6 5 5 5 5 5 5 6 5 3 3 4 5 5
4 3 2 3 3 6 10 9 8 8 9 9 8 5 7 12 14 15 15 14 13 12 10 8 8 7 5 5 6 6 4 3 4 4 4 4 5 5 5 5 5 4 4 5
4 5 4 2 6 9 11 11 11 10 9 8 6 5 10 15 16 16 14 12 10 9 7 6 7 8 7 6 6 4 3 3 3 3 2 4 5 5 5 4 5 5 6 6
3 3 3 2 4 6 11 10 10 10 10 10 10 11 14 16 16 15 13 11 9 7 6 7 8 8 7 6 5 4 3 3 3 3 3 5 6 6 4 4 5 5 6 5
5 5 3 3 5 4 5 6 8 9 10 11 12 13 13 14 16 14 11 9 8 8 7 7 7 7 7 7 7 7 7 7 6 6 6 5 5 5 4 3 2 2 2 3
Wind_Direction
205 219 223 224 224 239 253 260 259 250 240 240 228 231 240 242 220 230 244 244 234 224 207 170 160 152 150 150 153 155 155 152 152 153 157 149 143 129 114 106 102 94 84 76
211 222 232 234 233 231 243 258 269 277 277 270 252 235 237 255 257 236 235 247 253 233 188 150 139 146 149 152 154 154 151 151 157 153 147 139 130 119 108 103 101 104 100 93
227 227 221 231 241 240 240 248 261 270 279 279 275 259 246 255 266 263 243 236 246 247 198 158 150 154 155 156 159 156 150 150 153 140 126 118 105 110 116 122 112 108 110 99
232 242 245 229 233 239 244 247 258 267 270 269 267 266 251 244 246 247 245 236 232 238 210 173 156 152 150 148 143 138 134 135 132 130 142 149 154 155 153 140 127 121 109 110
229 231 236 237 239 240 246 253 252 253 257 264 267 270 267 261 259 248 246 237 224 230 214 177 158 145 136 133 130 128 124 124 128 140 155 163 150 134 122 116 128 137 127 124
247 240 230 233 230 232 243 250 257 262 262 257 253 257 262 258 260 257 254 238 211 219 196 151 137 130 129 126 123 124 124 126 133 140 145 145 127 123 125 130 142 162 151 152
244 249 244 232 233 219 222 234 238 236 234 246 246 245 253 254 257 263 275 269 163 125 126 126 130 131 131 130 129 129 128 126 125 122 115 112 114 118 126 134 144 179 155 135
230 232 232 227 225 234 219 225 239 256 262 268 275 265 270 285 285 338 2 30 87 112 120 127 129 130 133 135 134 134 132 128 122 114 109 106 117 129 119 84 102 131 58 92
246 239 221 215 212 223 240 229 235 253 269 279 282 292 298 288 249 215 221 225 185 141 131 129 132 134 138 140 138 138 133 125 119 114 107 103 89 84 96 97 37 85 72 111
260 286 289 228 203 207 227 247 250 249 261 271 279 282 294 328 325 306 231 228 127 124 126 127 132 136 135 133 127 123 122 120 116 114 121 115 96 95 108 117 80 72 74 64
264 273 278 264 212 217 214 226 243 260 265 268 272 276 348 16 11 12 5 9 112 128 130 131 133 129 124 122 123 124 122 120 120 117 103 102 106 116 131 113 111 103 87 81
274 266 267 268 263 238 239 241 232 238 250 261 273 282 329 27 33 25 13 18 60 115 126 129 128 126 126 128 130 129 126 120 114 108 102 104 105 101 92 94 85 93 92 316
331 271 257 259 261 259 248 245 253 255 256 255 263 277 8 45 34 25 21 28 46 103 120 126 128 131 134 135 133 129 122 117 114 115 114 108 105 96 70 73 69 35 2 319
310 282 269 267 290 310 300 279 270 266 259 261 269 294 13 35 25 11 15 25 47 114 127 131 133 136 136 135 131 125 116 109 105 97 96 87 73 74 64 55 43 3 331 312
279 271 270 275 281 280 283 289 296 296 293 292 301 318 26 35 24 18 16 14 47 119 134 137 139 137 135 131 125 117 102 84 80 79 79 78 66 57 57 47 12 356 352 353
230 282 289 281 277 281 280 279 279 276 279 287 293 316 47 39 29 24 18 14 23 75 117 131 131 131 130 125 117 105 93 81 73 65 57 50 42 46 38 14 24 28 19 14
291 280 276 273 278 281 269 279 287 289 306 326 335 21 27 31 31 30 26 29 34 54 83 105 111 112 111 111 110 103 96 88 81 76 76 76 65 56 36 33 42 31 17 15
299 305 291 278 276 263 282 356 359 342 9 9 16 27 29 38 53 49 41 41 47 58 77 88 97 99 99 99 99 100 102 108 127 150 108 76 56 56 50 50 38 34 21 13
226 257 271 271 266 264 265 33 13 359 45 29 26 19 10 4 45 58 47 54 60 66 78 85 93 98 97 96 99 105 111 126 126 104 86 69 57 55 54 48 30 28 15 16
209 226 246 257 263 269 56 28 3 310 109 30 13 2 355 341 330 58 60 70 74 76 83 89 92 93 93 91 93 102 107 102 94 86 78 68 57 58 63 50 30 13 6 17
216 224 236 250 257 279 19 347 324 295 26 7 358 352 347 7 57 96 89 85 87 88 89 91 91 88 86 82 84 87 85 80 81 84 81 67 46 76 80 63 37 13 5 7
252 258 260 264 263 234 19 17 26 9 358 356 352 352 46 91 101 102 100 98 96 95 93 93 93 88 84 84 85 82 76 76 80 82 83 76 51 44 60 57 50 33 9 11
287 0 11 35 62 69 51 49 31 15 6 0 353 1 105 112 112 109 105 103 100 100 101 103 104 103 99 96 96 97 106 119 115 105 103 101 95 77 50 46 42 33 25 22
340 352 325 49 92 74 63 53 43 39 34 23 30 70 110 115 114 112 110 108 108 113 120 123 111 101 95 94 91 89 89 90 95 97 109 112 98 89 71 46 41 40 27 22
333 319 315 328 83 71 60 51 53 56 58 62 70 90 108 114 114 115 116 119 126 132 126 112 103 103 105 107 105 98 91 87 90 76 71 86 80 74 69 65 44 40 60 42
6 8 356 36 48 70 74 65 73 80 81 87 93 96 103 111 116 118 121 127 130 127 122 120 122 117 107 94 78 65 56 47 40 50 56 67 69 61 52 59 111 104 97 168